When you browse on this site, cookies collect data to enhance your experience and personalize the content and advertising you see.
Visit our Privacy Policy to learn more. By continuing to use the site, you agree to this use of cookies and data.
  • In United Kingdom
  • List of Countries
  • For 7 days
  • Water Temperature
  • Weather Map
  • Weather Widgets
  • user-avatar
    Login

    Hourly Weather Cimanie

    Today, 20 September, Friday

    Time Temperature Precipitation Wind Pressure Humidity
    00:00 +5°C° 0 mm 4 mps 750 mmHg 93%
    01:00 +4°C° 0 mm 4 mps 750 mmHg 93%
    02:00 +4°C° 0 mm 4 mps 750 mmHg 94%
    03:00 +4°C° 0 mm 4 mps 750 mmHg 94%
    04:00 +3°C° 0 mm 4 mps 750 mmHg 94%
    05:00 +3°C° 0 mm 4 mps 750 mmHg 93%
    06:00 +4°C° 0 mm 4 mps 750 mmHg 88%
    07:00 +5°C° 0 mm 5 mps 751 mmHg 82%
    08:00 +5°C° 0 mm 5 mps 751 mmHg 77%
    09:00 +7°C° 0 mm 5 mps 751 mmHg 68%
    10:00 +8°C° 0 mm 5 mps 751 mmHg 59%
    11:00 +10°C° 0 mm 6 mps 751 mmHg 50%
    12:00 +10°C° 0 mm 5 mps 751 mmHg 48%
    13:00 +10°C° 0 mm 5 mps 751 mmHg 45%
    14:00 +12°C° 0 mm 5 mps 751 mmHg 43%
    15:00 +12°C° 0 mm 4 mps 751 mmHg 45%
    16:00 +11°C° 0 mm 4 mps 751 mmHg 47%
    17:00 +11°C° 0 mm 3 mps 751 mmHg 49%
    18:00 +10°C° 0 mm 2 mps 751 mmHg 55%
    19:00 +8°C° 0 mm 2 mps 751 mmHg 60%
    20:00 +8°C° 0 mm 1 mps 751 mmHg 65%
    21:00 +7°C° 0 mm 1 mps 751 mmHg 67%
    22:00 +6°C° 0 mm 2 mps 751 mmHg 70%
    23:00 +6°C° 0 mm 2 mps 751 mmHg 72%

    Tomorrow, 21 September, Saturday

    Time Temperature Precipitation Wind Pressure Humidity
    00:00 +7°C° 0 mm 2 mps 750 mmHg 72%
    01:00 +7°C° 0 mm 3 mps 750 mmHg 72%
    02:00 +8°C° 0 mm 3 mps 750 mmHg 71%
    03:00 +8°C° 0.1 mm 3 mps 750 mmHg 77%
    04:00 +7°C° 0.1 mm 4 mps 749 mmHg 83%
    05:00 +7°C° 0.1 mm 4 mps 749 mmHg 88%
    06:00 +8°C° 0.2 mm 4 mps 749 mmHg 90%
    07:00 +10°C° 0.2 mm 4 mps 748 mmHg 93%
    08:00 +11°C° 0.2 mm 4 mps 748 mmHg 95%
    09:00 +10°C° 0.1 mm 5 mps 748 mmHg 93%
    10:00 +12°C° 0.1 mm 5 mps 748 mmHg 92%
    11:00 +11°C° 0.1 mm 6 mps 748 mmHg 90%
    12:00 +13°C° 0 mm 6 mps 748 mmHg 88%
    13:00 +13°C° 0 mm 6 mps 748 mmHg 86%
    14:00 +14°C° 0 mm 6 mps 748 mmHg 83%
    15:00 +14°C° 0 mm 5 mps 748 mmHg 82%
    16:00 +14°C° 0 mm 5 mps 748 mmHg 81%
    17:00 +14°C° 0 mm 5 mps 748 mmHg 79%
    18:00 +13°C° 0 mm 5 mps 748 mmHg 83%
    19:00 +12°C° 0 mm 4 mps 749 mmHg 87%
    20:00 +11°C° 0 mm 4 mps 749 mmHg 91%
    21:00 +11°C° 0 mm 4 mps 749 mmHg 92%
    22:00 +10°C° 0 mm 4 mps 749 mmHg 94%
    23:00 +10°C° 0 mm 4 mps 749 mmHg 95%

    Day after tomorrow, 22 September, Sunday

    Time Temperature Precipitation Wind Pressure Humidity
    00:00 +10°C° 0 mm 3 mps 749 mmHg 96%
    01:00 +9°C° 0 mm 3 mps 749 mmHg 97%
    02:00 +9°C° 0 mm 3 mps 749 mmHg 97%
    03:00 +9°C° 0 mm 3 mps 749 mmHg 97%
    04:00 +9°C° 0 mm 3 mps 749 mmHg 97%
    05:00 +9°C° 0 mm 3 mps 748 mmHg 96%
    06:00 +10°C° 0 mm 3 mps 748 mmHg 94%
    07:00 +10°C° 0 mm 3 mps 748 mmHg 92%
    08:00 +10°C° 0 mm 3 mps 748 mmHg 90%
    09:00 +12°C° 0 mm 4 mps 748 mmHg 83%
    10:00 +14°C° 0 mm 4 mps 748 mmHg 76%
    11:00 +17°C° 0 mm 4 mps 748 mmHg 68%
    12:00 +18°C° 0 mm 4 mps 748 mmHg 64%
    13:00 +19°C° 0 mm 4 mps 748 mmHg 59%
    14:00 +20°C° 0 mm 4 mps 748 mmHg 55%
    15:00 +20°C° 0 mm 3 mps 747 mmHg 58%
    16:00 +20°C° 0 mm 3 mps 747 mmHg 60%
    17:00 +19°C° 0 mm 2 mps 747 mmHg 63%
    18:00 +17°C° 0 mm 2 mps 747 mmHg 70%
    19:00 +16°C° 0 mm 2 mps 747 mmHg 78%
    20:00 +14°C° 0 mm 1 mps 747 mmHg 85%
    21:00 +13°C° 0 mm 2 mps 747 mmHg 87%
    22:00 +13°C° 0 mm 2 mps 747 mmHg 89%
    23:00 +13°C° 0 mm 2 mps 747 mmHg 91%

    23 September, Monday

    Time Temperature Precipitation Wind Pressure Humidity
    00:00 +11°C° 0 mm 3 mps 748 mmHg 87%
    01:00 +11°C° 0 mm 3 mps 748 mmHg 84%
    02:00 +11°C° 0 mm 3 mps 748 mmHg 80%
    03:00 +11°C° 0 mm 4 mps 748 mmHg 80%
    04:00 +10°C° 0 mm 4 mps 748 mmHg 79%
    05:00 +10°C° 0 mm 4 mps 748 mmHg 78%
    06:00 +10°C° 0 mm 4 mps 748 mmHg 77%
    07:00 +10°C° 0 mm 4 mps 747 mmHg 76%
    08:00 +10°C° 0 mm 4 mps 747 mmHg 76%
    09:00 +11°C° 0 mm 4 mps 747 mmHg 73%
    10:00 +13°C° 0 mm 4 mps 747 mmHg 70%
    11:00 +14°C° 0 mm 4 mps 747 mmHg 67%
    12:00 +15°C° 0 mm 4 mps 747 mmHg 66%
    13:00 +17°C° 0 mm 4 mps 746 mmHg 65%
    14:00 +17°C° 0 mm 4 mps 746 mmHg 64%
    15:00 +17°C° 0 mm 4 mps 746 mmHg 66%
    16:00 +17°C° 0 mm 4 mps 745 mmHg 68%
    17:00 +15°C° 0 mm 4 mps 745 mmHg 69%
    18:00 +14°C° 0 mm 4 mps 745 mmHg 74%
    19:00 +12°C° 0 mm 4 mps 745 mmHg 79%
    20:00 +11°C° 0 mm 4 mps 745 mmHg 84%
    21:00 +10°C° 0 mm 4 mps 745 mmHg 85%
    22:00 +9°C° 0 mm 3 mps 745 mmHg 86%
    23:00 +9°C° 0 mm 3 mps 745 mmHg 87%

    24 September, Tuesday

    Time Temperature Precipitation Wind Pressure Humidity
    00:00 +8°C° 0 mm 3 mps 745 mmHg 87%
    01:00 +8°C° 0 mm 3 mps 745 mmHg 88%
    02:00 +7°C° 0 mm 2 mps 745 mmHg 89%
    03:00 +7°C° 0 mm 2 mps 745 mmHg 89%
    04:00 +7°C° 0 mm 2 mps 745 mmHg 90%
    05:00 +6°C° 0 mm 2 mps 744 mmHg 90%
    06:00 +7°C° 0 mm 3 mps 744 mmHg 86%
    07:00 +8°C° 0 mm 3 mps 745 mmHg 82%
    08:00 +8°C° 0 mm 3 mps 745 mmHg 78%
    09:00 +10°C° 0 mm 3 mps 745 mmHg 73%
    10:00 +12°C° 0 mm 4 mps 745 mmHg 68%
    11:00 +13°C° 0 mm 4 mps 746 mmHg 62%
    12:00 +14°C° 0 mm 4 mps 745 mmHg 61%
    13:00 +15°C° 0 mm 4 mps 745 mmHg 59%
    14:00 +15°C° 0 mm 4 mps 745 mmHg 57%
    15:00 +15°C° 0 mm 4 mps 745 mmHg 59%
    16:00 +14°C° 0 mm 4 mps 745 mmHg 61%
    17:00 +13°C° 0 mm 4 mps 745 mmHg 64%
    18:00 +12°C° 0 mm 4 mps 745 mmHg 68%
    19:00 +10°C° 0 mm 4 mps 745 mmHg 72%
    20:00 +7°C° 0 mm 4 mps 746 mmHg 76%
    21:00 +7°C° 0 mm 4 mps 746 mmHg 76%
    22:00 +8°C° 0 mm 3 mps 746 mmHg 77%
    23:00 +7°C° 0 mm 3 mps 746 mmHg 77%

    25 September, Wednesday

    Time Temperature Precipitation Wind Pressure Humidity
    00:00 +7°C° 0 mm 3 mps 745 mmHg 76%
    01:00 +7°C° 0 mm 3 mps 745 mmHg 75%
    02:00 +7°C° 0 mm 4 mps 745 mmHg 74%
    03:00 +6°C° 0 mm 4 mps 745 mmHg 74%
    04:00 +6°C° 0 mm 4 mps 744 mmHg 74%
    05:00 +7°C° 0 mm 3 mps 744 mmHg 74%
    06:00 +7°C° 0 mm 4 mps 744 mmHg 74%
    07:00 +7°C° 0 mm 4 mps 743 mmHg 73%
    08:00 +7°C° 0 mm 4 mps 743 mmHg 73%
    09:00 +8°C° 0 mm 4 mps 743 mmHg 75%
    10:00 +8°C° 0 mm 4 mps 743 mmHg 77%
    11:00 +8°C° 0 mm 4 mps 743 mmHg 80%
    12:00 +10°C° 0.1 mm 4 mps 743 mmHg 81%
    13:00 +11°C° 0.1 mm 4 mps 742 mmHg 82%
    14:00 +12°C° 0.1 mm 5 mps 742 mmHg 83%
    15:00 +12°C° 0.1 mm 4 mps 741 mmHg 83%
    16:00 +13°C° 0.1 mm 4 mps 741 mmHg 83%
    17:00 +13°C° 0.1 mm 4 mps 741 mmHg 83%
    18:00 +13°C° 0.3 mm 4 mps 741 mmHg 86%
    19:00 +13°C° 0.3 mm 4 mps 740 mmHg 89%
    20:00 +13°C° 0.3 mm 3 mps 740 mmHg 92%
    21:00 +12°C° 0.1 mm 3 mps 740 mmHg 94%
    22:00 +12°C° 0.1 mm 3 mps 740 mmHg 95%
    23:00 +12°C° 0.1 mm 3 mps 740 mmHg 96%
    Show more